Find Starlink 11230

NORAD ID: 61053 Int'l Des: 2024-164 Owner: SPXS Country: US Constellation: starlink operational
LEOCIRCULAR

現在のビュー

3D地球を読み込み中...

Starlink 11230について

説明を読み込み中...

次回通過

Passes for default location (London). Set your location on the main map for personalized predictions.

高度履歴

Loading altitude history...

軌道要素

1 61053U 24164D 26159.43554916 .00000549 00000-0 93791-5 0 9994
2 61053 53.1591 223.7715 0000638 83.2176 276.8915 15.69718319 99671
Epoch: Jun 8, 2026 • Age: 13 hours

現在のステータス

高度 365.4 km
速度 7.70 km/s
衛星直下点 51.45°N, 48.01°E
打ち上げ日 Sep 13, 2024
運用期間 1.7 years
タイプ internet

技術仕様

分類 Payload
質量 960.00 kg
乾燥質量 910.00 kg
総質量 960.00 kg
長さ 0.30 m
直径 4.10 m
スパン 29.00 m
形状 Box + pan
製造者 SPXS
バスタイプ Starlink V2MD
フェーズステータス In Orbit
所有者/国 SPXS/US

Most Searched